Showing default

QIANFAN-4, 60382

Orbit data source: Space-Track

QIANFAN-4, 60382 is a Chinese payload satellite in LEO that was launched on Tue, 06 Aug 2024 UTC via a CHANG ZHENG 6A launch vehicle from the Taiyaun Space Center, China (TSC). Payload-class satellites include a variety of spacecraft equipped with specific instruments for various scientific and technological missions. These include communications satellites like Starlink; space stations such as the ISS; scientific satellites like the Hubble; Earth observation satellites from companies like Planet Labs, Umbra, and HawkEye 360; GPS; miniature CubeSats for education and research; and military/defense satellites.

Loading next visibility...
Identifier
60382, 2024-140D
Orbit
LEO
Country
Flag of CNCN / PRC
Related business
Manufacturer
SECM
Mission
Operational Commercial Communications
Bus & Motor
QIANFAN, Unknown motor
Mass
267 kg wet, ~267 kg dry
Launch date (UTC)
2024-08-06 (2 years ago)
Launch vehicle
CHANG ZHENG 6A
Launch site
Taiyaun Space Center, China (TSC)
Object type
Payload
Rocket body
Debris
Shape & HBR
Box + 1 Pan, 5.0 m
Radar Cross Section
13.200 m², Large (>1 m²)

Expand to show TLE details & history
Last TLE update: 11 hours ago

TLE from 11 hours ago
0 QIANFAN-4
1 60382U 24140D   26171.38115646  .00000113  00000-0  15586-3 0  9994
2 60382  88.9741 279.4753 0012675  12.4486 347.6976 13.51014674 93041
Epoch: 2026-06-20T09:08Z
TLE epoch observation values (Epoch: 2026-06-20T09:08:51.918Z)
Latitude
0.00002°
Longitude
-126.33762°
Altitude
1,062.258 km
Speed
7.325 km/s
True Right ascension
18h 37m 54s
True Declination
0° 00' 00"
Sunlit
Object was in full shadow at epoch
Visualization orbit readout
Latitude
Unknown
Longitude
Unknown
Altitude
Unknown
Speed
Unknown
Apparent Right ascension
Unknown
Apparent Declination
Unknown
Sunlit
N/A
Visualization observer readout
Local Sidereal Time
07:24:11
Azimuth
Unknown
Elevation
Unknown
Doppler factor
Unknown
Orbital elements
Apogee altitude
1,075.014 km
Perigee altitude
1,056.144 km
Semi-major axis
7,443.716 km
Eccentricity
0.00127
Inclination
88.9741°
RAAN
279.4753°
Arg. of periapsis
12.4486°
True anomaly
347.6666°
Mean anomaly
347.6976°
Eccentric anomaly
347.68211°
Mean motion
3.37955 °/min
Orbital period
106.52 mins
BSTAR
0.00015586
Loading maneuver chart data...
Computing Atmospheric mass density...
Loading historical data...
Loading historical data...
Loading historical data...
Loading historical data...
Loading historical data...
Loading historical data...
Loading historical data...

Documentation

Showing up to 5 results
|